PDT,Max TemperatureF,Mean TemperatureF,Min TemperatureF,Max Dew PointF,MeanDew PointF,Min DewpointF,Max Humidity, Mean Humidity, Min Humidity, Max Sea Level PressureIn, Mean Sea Level PressureIn, Min Sea Level PressureIn, Max VisibilityMiles, Mean VisibilityMiles, Min VisibilityMiles, Max Wind SpeedMPH, Mean Wind SpeedMPH, Max Gust SpeedMPH,PrecipitationIn, CloudCover, Events, WindDirDegrees
2012-9-1,77,62,46,39,35,30,58,36,19,30.12,30.09,30.06,10,10,8,21,6,25,0.00,0,,312
2012-9-2,86,65,44,46,36,10,66,41,6,30.12,30.09,30.06,10,10,8,21,4,23,0.00,0,,312
2012-9-3,89,68,46,41,34,21,66,32,9,30.16,30.12,30.10,10,10,8,17,5,20,0.00,0,,310
2012-9-4,91,73,55,52,39,30,72,34,12,30.18,30.15,30.12,10,10,8,18,5,23,0.00,0,Rain-Thunderstorm,308
2012-9-5,77,68,59,54,43,32,52,39,19,30.17,30.14,30.10,10,10,7,10,3,,0.00,2,Rain,293
2012-9-6,84,72,60,50,46,39,56,40,28,30.15,30.12,30.10,10,10,9,21,9,28,0.00,0,,308
2012-9-7,82,72,62,55,50,46,72,48,28,30.21,30.17,30.13,10,10,6,17,8,22,0.00,0,,305
2012-9-8,91,74,57,50,49,48,72,43,23,30.19,30.14,30.07,10,9,8,18,5,21,0.00,0,Rain,287
2012-9-9,91,78,64,52,48,45,60,40,22,30.13,30.09,30.04,10,10,8,17,5,22,0.00,2,,297
2012-9-10,86,72,59,48,46,43,63,39,23,30.09,30.04,29.99,10,10,8,18,6,24,0.00,0,,298
2012-9-11,82,68,53,48,45,41,72,44,24,30.12,30.04,30.01,10,10,7,18,5,25,0.00,0,,309
2012-9-12,86,68,51,50,47,41,72,48,20,30.22,30.16,30.11,10,10,7,18,5,29,0.00,0,,98
2012-9-13,89,70,50,46,34,23,76,35,9,30.28,30.24,30.19,10,10,7,21,5,31,0.00,0,,106
2012-9-14,87,68,50,37,28,21,40,23,12,30.28,30.24,30.19,10,10,8,17,5,29,0.00,0,,116
2012-9-15,87,68,48,45,35,28,54,30,12,30.27,30.23,30.17,10,10,8,15,4,21,0.00,0,,95
2012-9-16,86,70,53,45,39,28,62,34,12,30.22,30.18,30.12,10,10,8,17,6,25,0.00,0,,308
2012-9-17,84,72,59,39,34,32,45,26,15,30.18,30.15,30.09,10,10,9,15,7,22,0.00,0,,309
2012-9-18,86,67,48,41,35,27,58,33,12,30.20,30.17,30.12,10,10,8,17,5,22,0.00,0,,22
2012-9-19,86,68,50,46,39,32,62,40,14,30.20,30.17,30.13,10,9,5,17,4,24,0.00,0,,313
2012-9-20,87,68,50,46,41,32,76,43,14,30.19,30.15,30.10,10,8,5,16,4,22,0.00,0,Rain,308
2012-9-21,86,68,50,48,41,27,72,42,12,30.15,30.11,30.07,10,9,7,17,5,23,0.00,0,,335
2012-9-22,86,70,55,45,40,36,55,36,17,30.13,30.10,30.08,10,10,9,16,4,21,0.00,0,,350
2012-9-23,86,68,50,43,38,32,62,36,15,30.17,30.13,30.10,10,10,8,18,5,28,0.00,0,,292
2012-9-24,82,66,50,41,36,21,66,35,16,30.14,30.07,30.00,10,10,8,25,7,43,0.00,0,,301
2012-9-25,77,60,44,37,33,28,61,37,19,30.05,30.02,29.99,10,9,5,17,6,22,0.00,0,,315
2012-9-26,82,63,44,37,32,28,62,37,15,30.07,30.03,29.98,10,10,7,16,4,22,0.00,0,Rain,126
2012-9-27,82,64,46,45,34,30,58,34,15,30.10,30.07,30.02,10,9,3,23,5,28,0.00,0,,115
2012-9-28,82,66,50,41,37,32,62,36,16,30.11,30.07,30.01,10,10,5,15,5,23,0.00,0,Rain,118
2012-9-29,84,67,50,46,41,32,67,42,15,30.22,30.16,30.11,10,9,7,17,4,23,0.00,0,,285
2012-9-30,87,68,48,46,40,28,76,43,12,30.24,30.21,30.17,10,9,7,18,4,23,0.00,0,,140